Overview Statistics Trail Chart Weather Telemetry Raw packets
 

This is the latest recevied weather packets stored in our database for station/object N3TJJ-2. If no packets are shown the sender has not sent any weather packets the latest 10 day(s).

<< 37 38 39 40 41 42 43 >>
Time Temp. Humidity Pressure Rain* Wind** Luminosity Snow
1788316248 20.56° C 48% 1016 hPa 0.25 mm - - -
1788315887 20.56° C 49% 1016.2 hPa 0.25 mm - - -
1788315538 20.56° C 51% 1016.3 hPa 0.25 mm - - -
1788315167 21.11° C 54% 1016.6 hPa 0.25 mm - - -
1788314809 21.11° C 54% 1016.6 hPa 0.25 mm - - -
1788314467 21.11° C 55% 1016.5 hPa 0.25 mm - - -
1788314091 21.11° C 57% 1016.5 hPa 0.25 mm - - -
1788313737 21.11° C 59% 1016.3 hPa 0.25 mm - - -
1788313369 21.11° C 61% 1016.4 hPa 0 mm - - -
1788313007 21.11° C 59% 1016.9 hPa 0 mm - - -
1788312651 21.11° C 58% 1017 hPa 0 mm - - -
1788312294 21.11° C 59% 1016.6 hPa 0 mm - - -
1788311935 21.67° C 60% 1016.3 hPa 0 mm - - -
1788311581 21.67° C 61% 1016.4 hPa 0 mm - - -
1788311214 21.67° C 59% 1015.6 hPa 0 mm - - -
1788310849 21.67° C 60% 1015.7 hPa 0 mm - - -
1788310487 21.67° C 61% 1015.7 hPa 0 mm - - -
1788310143 22.22° C 64% 1015.6 hPa 0 mm - - -
1788309780 22.22° C 65% 1015.8 hPa 0 mm - - -
1788309407 22.78° C 67% 1015.7 hPa 0 mm - - -
1788309047 22.78° C 67% 1015.7 hPa 0 mm - - -
1788308690 22.78° C 66% 1015.5 hPa 0 mm - - -
1788308338 22.78° C 65% 1015.6 hPa 0 mm - - -
1788307970 22.78° C 64% 1015.8 hPa 0 mm - - -
1788307628 22.22° C 63% 1015.7 hPa 0 mm - - -

* Rain latest hour (hover to see other rain measurements)
** Current wind speed in m/s (hover to see current wind gust speed)